User: anonymous   Login
Location: Bacea
(45.9500°N, 22.6667°E)
Time: 12:41:10
(UTC+00:00)
Language:

Cosmos 1300 - Orbit

View from above orbital plane
View from above orbital plane
View from above satellite
View from above satellite

Ground track
Ground track

The orbit data is extracted from the following two-line orbital elements,

1 12785U 81082A   22276.20478633  .00005912  00000-0  27253-3 0  9993
2 12785  82.5021 318.1797 0002113  58.9364   6.0647 15.20080882245201
Epoch (UTC): 03 October 2022 04:54:53
Eccentricity: 0.0002113
inclination: 82.5021°
perigee height: 504 km
apogee height: 507 km
right ascension of ascending node: 318.1797°
argument of perigee: 58.9364°
revolutions per day: 15.20080882
mean anomaly at epoch: 6.0647°
orbit number at epoch: 24520

The dashed part of the orbit path shows where the satellite is in the earth's shadow,  

DLR